[[{"header":{"parameterUnit":"m.s-1","parameterCategory":2,"la1":30.2991,"la2":30.254,"lo1":-89.0895,"lo2":-89.0444,"dy":0.0017,"dx":0.0017,"nx":28,"ny":28,"refTime":"2025-02-23T03:00:00:Z","depth":"0","parameterNumber":2,"parameterNumberName":"U-component_of_CURRENTS"},"data":[0,0,0,0,0,0,0,0,0,0,0,0,0,0,0,0,0,0,0,0,0,0,0,0,0,0,0,0,0,0,0,0,0,0,0,0,0,0,0,0,0,0,0,0,0,0,0,0,0,0,0,0,0,0,0,0,0,0,-0.2383,-0.2383,0,-0.2396,-0.2396,-0.2396,-0.2372,-0.2371,-0.2371,-0.237,-0.2324,-0.2323,-0.2322,0,0,0,0,0,0,0,0,0,0,0,0,0,-0.2313,-0.2315,-0.2383,-0.2383,-0.2384,-0.2396,-0.2396,-0.2396,-0.2372,-0.2371,-0.2371,-0.237,-0.2324,-0.2323,-0.2322,0,0,0,0,0,0,0,0,0,0,0,0,0,-0.2334,-0.2315,-0.2383,-0.2375,-0.2375,-0.2396,-0.2396,-0.2396,-0.2372,-0.2371,-0.237,-0.237,-0.2324,-0.2323,-0.2322,-0.2332,0,0,-0.2319,-0.2318,0,0,0,0,0,0,0,0,-0.2333,-0.2336,-0.2376,-0.2376,-0.2375,-0.2384,-0.2355,-0.2373,-0.2372,-0.237,-0.237,-0.2369,-0.2341,-0.2338,-0.2339,-0.233,-0.2328,-0.2319,-0.2318,-0.2318,-0.2317,0,0,0,0,0,0,0,-0.2332,-0.2335,-0.2385,-0.2376,-0.2376,-0.2364,-0.2366,-0.2358,-0.2356,-0.237,-0.2369,-0.2376,-0.234,-0.2341,-0.2338,-0.2327,-0.2319,-0.2318,-0.2317,-0.2317,-0.2309,-0.231,0,0,0,0,0,0,-0.2338,-0.2335,-0.2385,-0.2386,-0.2355,-0.2366,-0.2368,-0.238,-0.2358,-0.2355,-0.2376,-0.2374,-0.2343,-0.2339,-0.2336,-0.2348,-0.2318,-0.2317,-0.2316,-0.2309,-0.2309,-0.231,0,0,0,0,0,0,-0.2337,-0.2343,-0.2384,-0.2362,-0.2367,-0.2368,-0.2382,-0.238,-0.2381,-0.2364,-0.2359,-0.2378,-0.2342,-0.2338,-0.2332,-0.2345,-0.2316,-0.2315,-0.2308,-0.2309,-0.231,-0.237,0,0,0,0,0,0,-0.2335,-0.2342,-0.2348,-0.2363,-0.2369,-0.2402,-0.2383,-0.2381,-0.2388,-0.2385,-0.2364,-0.2359,-0.2341,-0.2334,-0.2331,-0.2343,-0.2314,-0.2308,-0.2309,-0.231,-0.2367,-0.2372,-0.2377,0,0,0,0,0,-0.2332,-0.2349,-0.2349,-0.2354,-0.2379,-0.2404,-0.2405,-0.2401,-0.2389,-0.2396,-0.2379,-0.2359,-0.2337,-0.2334,-0.2331,-0.2343,-0.2307,-0.2308,-0.2309,-0.2365,-0.2371,-0.2377,0,0,0,0,0,0,-0.232,-0.2349,-0.2349,-0.2372,-0.2388,-0.2401,-0.2406,-0.2405,-0.2399,-0.2391,-0.2369,-0.2363,-0.2362,-0.2344,-0.2341,-0.2342,-0.2318,-0.2318,-0.2361,-0.2367,-0.2372,-0.2368,-0.2313,0,0,0,0,0,-0.2323,-0.2339,-0.2365,-0.238,-0.2391,-0.2399,-0.2406,-0.2407,-0.2408,-0.2404,-0.239,-0.2373,-0.2365,-0.236,-0.2347,-0.2352,-0.2331,-0.2355,-0.236,-0.2364,-0.2358,-0.2346,-0.2349,-0.2313,-0.2313,-0.2313,0,0,-0.232,-0.2338,-0.2346,-0.2378,-0.2387,-0.2412,-0.24,-0.2418,-0.2431,-0.24,-0.2404,-0.239,-0.2369,-0.2373,-0.237,-0.2359,-0.2366,-0.2365,-0.2369,-0.236,-0.2347,-0.2351,-0.2354,-0.2314,-0.2314,-0.2314,0,0,-0.2329,-0.2343,-0.2362,-0.2382,-0.2407,-0.2417,-0.2426,-0.2443,-0.2442,-0.2453,-0.2431,-0.2424,-0.2414,-0.2403,-0.2396,-0.2419,-0.2391,-0.2416,-0.2439,-0.2429,-0.2432,-0.2434,-0.2424,-0.2425,-0.242,-0.242,-0.242,0,-0.2324,-0.2353,-0.237,-0.2398,-0.2414,-0.2424,-0.2449,-0.2458,-0.2468,-0.247,-0.2459,-0.2444,-0.2427,-0.243,-0.2437,-0.243,-0.2419,-0.2422,-0.2436,-0.2438,-0.2439,-0.2428,-0.2428,-0.2423,-0.2423,-0.2422,-0.2422,0,-0.235,-0.2375,-0.2389,-0.2426,-0.2448,-0.247,-0.2494,-0.2506,-0.2506,-0.2511,-0.2512,-0.2492,-0.248,-0.248,-0.2466,-0.247,-0.2457,-0.2445,-0.2423,-0.2446,-0.2433,-0.2432,-0.2427,-0.2426,-0.2425,-0.2424,0,0,-0.2329,-0.2395,-0.2396,-0.2416,-0.2464,-0.2481,-0.2514,-0.254,-0.255,-0.2555,-0.2562,-0.2553,-0.2537,-0.2526,-0.2509,-0.25,-0.2505,-0.2479,-0.2477,-0.2473,-0.2483,-0.2458,-0.2454,-0.2497,-0.2497,-0.2497,-0.2475,0,-0.2339,-0.2389,-0.2423,-0.2463,-0.2488,-0.2518,-0.2545,-0.2569,-0.258,-0.2588,-0.2577,-0.2572,-0.2558,-0.2547,-0.2542,-0.2509,-0.2503,-0.2512,-0.2457,-0.2456,-0.2434,-0.2452,-0.2415,-0.2391,-0.2474,-0.2474,-0.2473,0,-0.2346,-0.2378,-0.2422,-0.2477,-0.249,-0.2514,-0.2549,-0.2576,-0.2601,-0.2609,-0.2613,-0.2602,-0.2594,-0.2572,-0.2541,-0.2548,-0.2519,-0.2496,-0.2494,-0.2445,-0.2428,-0.2378,-0.2385,-0.2386,-0.2472,-0.2472,-0.2472,0,-0.2305,-0.2372,-0.2402,-0.2422,-0.2489,-0.2505,-0.2534,-0.2571,-0.2592,-0.2612,-0.2625,-0.2618,-0.2607,-0.2579,-0.2541,-0.2539,-0.2502,-0.2491,-0.2444,-0.2442,-0.2384,-0.2377,-0.2385,-0.2466,-0.2466,-0.2466,-0.2466,0,-0.2295,-0.2313,-0.2381,-0.2394,-0.2419,-0.2476,-0.2501,-0.2531,-0.2575,-0.2594,-0.2621,-0.2625,-0.2606,-0.2589,-0.2551,-0.2498,-0.2512,-0.2446,-0.2433,-0.2405,-0.24,-0.2375,-0.2372,-0.2465,-0.2465,-0.2465,-0.2466,0,-0.2236,-0.2289,-0.2317,-0.2381,-0.24,-0.2409,-0.2479,-0.2495,-0.2552,-0.2576,-0.2583,-0.2625,-0.2603,-0.2585,-0.2536,-0.2504,-0.2422,-0.2432,-0.2403,-0.2387,-0.2336,-0.2336,-0.2262,-0.2211,-0.2373,-0.2372,-0.2371,0,-0.2209,-0.2219,-0.2281,-0.2292,-0.2316,-0.2352,-0.2375,-0.2458,-0.2482,-0.2566,-0.2566,-0.2584,-0.2589,-0.2536,-0.2481,-0.2424,-0.2385,-0.2342,-0.2325,-0.2328,-0.232,-0.229,-0.225,-0.2277,-0.2276,-0.2275,-0.2274,0,-0.2138,-0.2158,-0.2178,-0.2206,-0.2229,-0.2267,-0.231,-0.2339,-0.2431,-0.2478,-0.2528,-0.2552,-0.254,-0.2487,-0.2426,-0.2367,-0.23,-0.2316,-0.2324,-0.2249,-0.2209,-0.2155,-0.2303,-0.2264,-0.2265,-0.2265,-0.2266,-0.2266,-0.2062,-0.2056,-0.2082,-0.2097,-0.2129,-0.2155,-0.2149,-0.2228,-0.2278,-0.2335,-0.2429,-0.2472,-0.2474,-0.2397,-0.2345,-0.2256,-0.223,-0.2194,-0.2196,-0.2166,-0.211,-0.2238,-0.2182,-0.2183,-0.2183,-0.2184,-0.2184,0,-0.1957,-0.1963,-0.1973,-0.1986,-0.1973,-0.2033,-0.2076,-0.2059,-0.2086,-0.2212,-0.2268,-0.2379,-0.2338,-0.233,-0.2271,-0.2184,-0.2108,-0.2109,-0.2071,-0.2035,-0.2158,-0.215,-0.2078,-0.2078,-0.2078,-0.2078,-0.2078,-0.2078,-0.1902,-0.1868,-0.1876,-0.1817,-0.1825,-0.1771,-0.1771,-0.1782,-0.1842,-0.1942,-0.2077,-0.2225,-0.2238,-0.2361,-0.2262,-0.2158,-0.2077,-0.2001,-0.1984,-0.211,-0.2119,-0.2127,-0.212,-0.2044,-0.2043,-0.1824,-0.1823,-0.1822]},{"header":{"parameterUnit":"m.s-1","parameterCategory":2,"la1":30.2991,"la2":30.254,"lo1":-89.0895,"lo2":-89.0444,"dy":0.0017,"dx":0.0017,"nx":28,"ny":28,"refTime":"2025-02-23T03:00:00:Z","depth":"0","parameterNumber":3,"parameterNumberName":"V-component_of_CURRENTS"},"data":[0,0,0,0,0,0,0,0,0,0,0,0,0,0,0,0,0,0,0,0,0,0,0,0,0,0,0,0,0,0,0,0,0,0,0,0,0,0,0,0,0,0,0,0,0,0,0,0,0,0,0,0,0,0,0,0,0,0,-0.0425,-0.0424,0,-0.0347,-0.0346,-0.0345,-0.0294,-0.0294,-0.0294,-0.0293,-0.0196,-0.0194,-0.0191,0,0,0,0,0,0,0,0,0,0,0,0,0,-0.0471,-0.0471,-0.0425,-0.0424,-0.0423,-0.0347,-0.0346,-0.0344,-0.0294,-0.0294,-0.0294,-0.0293,-0.0197,-0.0194,-0.0191,0,0,0,0,0,0,0,0,0,0,0,0,0,-0.0427,-0.0471,-0.0425,-0.039,-0.0386,-0.0347,-0.0346,-0.0344,-0.0294,-0.0294,-0.0293,-0.0293,-0.0198,-0.0194,-0.0191,-0.0176,0,0,-0.018,-0.0178,0,0,0,0,0,0,0,0,-0.043,-0.0425,-0.0396,-0.0392,-0.0388,-0.033,-0.0326,-0.0287,-0.0294,-0.0328,-0.0293,-0.0293,-0.024,-0.0233,-0.0218,-0.0171,-0.0167,-0.018,-0.0177,-0.0176,-0.0175,0,0,0,0,0,0,0,-0.0433,-0.0428,-0.0393,-0.0395,-0.039,-0.0357,-0.0351,-0.0318,-0.0286,-0.0325,-0.0321,-0.0314,-0.0237,-0.0222,-0.0215,-0.0166,-0.018,-0.0177,-0.0174,-0.0173,-0.0086,-0.0086,0,0,0,0,0,0,-0.0448,-0.0431,-0.0396,-0.0391,-0.0409,-0.0357,-0.035,-0.0348,-0.0287,-0.0277,-0.0314,-0.0312,-0.0228,-0.022,-0.0212,-0.0182,-0.0176,-0.0173,-0.0171,-0.0086,-0.0086,-0.0086,0,0,0,0,0,0,-0.0449,-0.0446,-0.0399,-0.0409,-0.0401,-0.0357,-0.0355,-0.0347,-0.0331,-0.0279,-0.0269,-0.0308,-0.0227,-0.0217,-0.018,-0.0179,-0.0171,-0.0168,-0.0086,-0.0086,-0.0086,-0.0129,0,0,0,0,0,0,-0.0451,-0.0447,-0.0452,-0.0411,-0.0401,-0.0381,-0.0356,-0.0346,-0.0328,-0.0324,-0.027,-0.026,-0.0226,-0.0185,-0.0176,-0.0174,-0.0165,-0.0086,-0.0086,-0.0086,-0.0128,-0.013,-0.0132,0,0,0,0,0,-0.0453,-0.0464,-0.0453,-0.0448,-0.041,-0.0382,-0.0374,-0.034,-0.0328,-0.0324,-0.0283,-0.0262,-0.0177,-0.0182,-0.0171,-0.0168,-0.0087,-0.0086,-0.0086,-0.0127,-0.013,-0.0132,0,0,0,0,0,0,-0.0487,-0.0459,-0.0446,-0.0448,-0.0419,-0.0374,-0.0369,-0.0345,-0.031,-0.0307,-0.0257,-0.0245,-0.0213,-0.0185,-0.0192,-0.0142,-0.0129,-0.0127,-0.0164,-0.0166,-0.0168,-0.0184,-0.0162,0,0,0,0,0,-0.0498,-0.05,-0.0463,-0.0465,-0.0454,-0.0413,-0.0398,-0.0375,-0.0338,-0.0323,-0.0283,-0.0241,-0.0203,-0.0181,-0.0145,-0.0118,-0.0087,-0.0109,-0.0111,-0.0113,-0.0119,-0.0072,-0.0071,-0.0084,-0.0084,-0.0084,0,0,-0.0512,-0.0497,-0.0498,-0.0472,-0.0449,-0.0438,-0.0403,-0.0387,-0.0372,-0.0318,-0.0289,-0.0249,-0.0198,-0.0165,-0.0148,-0.0141,-0.0092,-0.0113,-0.0115,-0.0119,-0.0071,-0.007,-0.0069,-0.0084,-0.0084,-0.0084,0,0,-0.0544,-0.0528,-0.0541,-0.052,-0.0491,-0.0462,-0.0461,-0.0417,-0.0392,-0.0359,-0.0316,-0.0274,-0.022,-0.0178,-0.0151,-0.0144,-0.0108,-0.0136,-0.0157,-0.0112,-0.011,-0.0109,-0.0067,-0.0061,-0.0135,-0.0135,-0.0135,0,-0.0563,-0.0572,-0.0539,-0.0542,-0.0529,-0.0478,-0.0482,-0.0448,-0.0395,-0.0372,-0.0359,-0.0267,-0.0225,-0.0175,-0.0172,-0.015,-0.0121,-0.0152,-0.0115,-0.0113,-0.0111,-0.0068,-0.0061,-0.0137,-0.0137,-0.0137,-0.0136,0,-0.0601,-0.0605,-0.061,-0.0596,-0.0576,-0.0572,-0.0522,-0.0496,-0.0461,-0.0419,-0.0365,-0.0302,-0.0248,-0.0226,-0.0197,-0.0158,-0.0142,-0.0126,-0.0112,-0.0112,-0.0067,-0.0059,-0.014,-0.0139,-0.0139,-0.0138,0,0,-0.0651,-0.0641,-0.0642,-0.0645,-0.0605,-0.0594,-0.0567,-0.0523,-0.0501,-0.0443,-0.0407,-0.0336,-0.0298,-0.0265,-0.0217,-0.0175,-0.0131,-0.0151,-0.0147,-0.0115,-0.0034,0.0017,0.0031,-0.0111,-0.011,-0.0109,-0.0008,0,-0.0691,-0.072,-0.0693,-0.0704,-0.0713,-0.0654,-0.0632,-0.0582,-0.0526,-0.0476,-0.0399,-0.0351,-0.0312,-0.0287,-0.0238,-0.0154,-0.0113,-0.016,-0.0032,-0.0029,0.0012,0.0041,0.0087,0.0185,-0.0,0.0001,0.0002,0,-0.0735,-0.0748,-0.0778,-0.0762,-0.0758,-0.0751,-0.0701,-0.0671,-0.0582,-0.0537,-0.0469,-0.0404,-0.0324,-0.0301,-0.0163,-0.0195,-0.0126,-0.0064,-0.0058,0.0009,0.0037,0.0157,0.0207,0.0351,0.0015,0.0014,0.0013,0,-0.0795,-0.0802,-0.0832,-0.0828,-0.0801,-0.0795,-0.0771,-0.0695,-0.0666,-0.0575,-0.054,-0.0435,-0.0373,-0.0277,-0.014,-0.0154,0.0013,0.0012,0.0123,0.0127,0.0202,0.0212,0.0402,0.0095,0.0095,0.0095,0.0095,0,-0.0851,-0.0869,-0.0866,-0.0882,-0.0903,-0.0856,-0.085,-0.0802,-0.073,-0.0692,-0.0582,-0.0522,-0.0366,-0.0245,-0.0143,0.003,0.0016,0.0128,0.0162,0.0189,0.0196,0.0352,0.04,0.0099,0.0098,0.0097,0.0097,0,-0.0912,-0.0911,-0.0944,-0.0938,-0.0938,-0.0952,-0.0918,-0.0904,-0.0823,-0.0768,-0.0744,-0.0577,-0.0406,-0.0241,-0.0057,0.0039,0.0276,0.0242,0.0265,0.03,0.0523,0.0564,0.0761,0.0818,0.0375,0.0377,0.0379,0,-0.0946,-0.0973,-0.0999,-0.1025,-0.1027,-0.1036,-0.1038,-0.0967,-0.0939,-0.0798,-0.0774,-0.0589,-0.044,-0.0131,0.0083,0.0296,0.0377,0.0444,0.0424,0.0558,0.0629,0.0645,0.0677,0.0508,0.0511,0.0513,0.0514,0,-0.1005,-0.1017,-0.1047,-0.1109,-0.1131,-0.1145,-0.1133,-0.1125,-0.1025,-0.0953,-0.0814,-0.0682,-0.0341,-0.0041,0.0257,0.0377,0.0553,0.0493,0.0636,0.0757,0.0784,0.0847,0.0412,0.0533,0.0531,0.053,0.0529,0.0528,-0.1042,-0.1086,-0.1133,-0.1186,-0.1219,-0.124,-0.125,-0.1207,-0.1156,-0.1019,-0.0867,-0.0629,-0.0161,0.0287,0.043,0.0781,0.0718,0.0873,0.0914,0.0919,0.0976,0.058,0.0734,0.0733,0.0733,0.0732,0.0732,0,-0.1088,-0.1138,-0.1202,-0.1263,-0.1314,-0.1305,-0.1302,-0.1289,-0.1232,-0.1047,-0.0882,-0.0339,0.0107,0.0511,0.1025,0.12,0.12,0.1283,0.1326,0.1337,0.1009,0.1019,0.1237,0.1237,0.1237,0.1237,0.1236,0.1236,-0.1113,-0.1192,-0.1232,-0.133,-0.137,-0.1413,-0.1413,-0.1367,-0.1248,-0.0952,-0.063,-0.0364,0.029,0.1136,0.1593,0.1613,0.1724,0.1721,0.1765,0.1558,0.1522,0.1489,0.1512,0.183,0.1831,0.2077,0.208,0.2082]}],[{"header":{"parameterUnit":"m.s-1","parameterCategory":2,"la1":30.2991,"la2":30.254,"lo1":-89.0895,"lo2":-89.0444,"dy":0.0017,"dx":0.0017,"nx":28,"ny":28,"refTime":"2025-02-23T03:00:00:Z","depth":"2","parameterNumber":2,"parameterNumberName":"U-component_of_CURRENTS"},"data":[0,0,0,0,0,0,0,0,0,0,0,0,0,0,0,0,0,0,0,0,0,0,0,0,0,0,0,0,0,0,0,0,0,0,0,0,0,0,0,0,0,0,0,0,0,0,0,0,0,0,0,0,0,0,0,0,0,0,-0.2196,-0.2196,0,-0.2206,-0.2206,-0.2206,-0.2187,-0.2187,-0.2187,-0.2186,-0.215,-0.2149,-0.2149,0,0,0,0,0,0,0,0,0,0,0,0,0,-0.2134,-0.2135,-0.2196,-0.2196,-0.2196,-0.2206,-0.2206,-0.2206,-0.2187,-0.2187,-0.2187,-0.2186,-0.215,-0.2149,-0.2149,0,0,0,0,0,0,0,0,0,0,0,0,0,-0.2152,-0.2136,-0.2195,-0.219,-0.219,-0.2206,-0.2206,-0.2206,-0.2187,-0.2187,-0.2186,-0.2186,-0.215,-0.2149,-0.2148,-0.2154,0,0,-0.2146,-0.2145,0,0,0,0,0,0,0,0,-0.2151,-0.2154,-0.2191,-0.2191,-0.2191,-0.2198,-0.2172,-0.2187,-0.2188,-0.2185,-0.2186,-0.2186,-0.2164,-0.2162,-0.2161,-0.2152,-0.215,-0.2145,-0.2145,-0.2144,-0.2144,0,0,0,0,0,0,0,-0.215,-0.2153,-0.2197,-0.2191,-0.2191,-0.2179,-0.2181,-0.2174,-0.2174,-0.2186,-0.2185,-0.2191,-0.2163,-0.2162,-0.216,-0.215,-0.2145,-0.2145,-0.2144,-0.2144,-0.2142,-0.2143,0,0,0,0,0,0,-0.2157,-0.2152,-0.2197,-0.2197,-0.2172,-0.2181,-0.2183,-0.2193,-0.2175,-0.2173,-0.2192,-0.219,-0.2164,-0.2161,-0.2159,-0.2176,-0.2145,-0.2144,-0.2143,-0.2142,-0.2142,-0.2143,0,0,0,0,0,0,-0.2155,-0.2161,-0.2196,-0.2177,-0.2181,-0.2183,-0.2195,-0.2194,-0.2198,-0.2181,-0.2177,-0.2197,-0.2164,-0.216,-0.2159,-0.2174,-0.2143,-0.2142,-0.2141,-0.2142,-0.2143,-0.2203,0,0,0,0,0,0,-0.2153,-0.216,-0.2167,-0.2178,-0.2183,-0.2214,-0.2196,-0.2195,-0.2204,-0.2202,-0.2184,-0.218,-0.2163,-0.2161,-0.2158,-0.2172,-0.2142,-0.214,-0.2141,-0.2142,-0.22,-0.2206,-0.221,0,0,0,0,0,-0.2151,-0.2167,-0.2167,-0.2172,-0.2193,-0.2215,-0.2216,-0.2213,-0.2204,-0.2212,-0.2199,-0.2181,-0.2165,-0.2161,-0.2157,-0.2172,-0.214,-0.2141,-0.2142,-0.2198,-0.2205,-0.221,0,0,0,0,0,0,-0.2143,-0.2167,-0.2167,-0.2189,-0.2204,-0.2213,-0.2219,-0.222,-0.2216,-0.2211,-0.219,-0.2186,-0.2189,-0.2172,-0.2168,-0.2173,-0.2148,-0.2149,-0.2192,-0.2198,-0.2203,-0.2199,-0.2141,0,0,0,0,0,-0.2146,-0.216,-0.2183,-0.2197,-0.2208,-0.2215,-0.2222,-0.2224,-0.2225,-0.2223,-0.2212,-0.2198,-0.2192,-0.2189,-0.2177,-0.2184,-0.2164,-0.2189,-0.2194,-0.2199,-0.2193,-0.2183,-0.2187,-0.2147,-0.2147,-0.2147,0,0,-0.2145,-0.216,-0.2168,-0.2196,-0.2205,-0.2227,-0.2217,-0.2235,-0.2249,-0.222,-0.2228,-0.2216,-0.2197,-0.2202,-0.2202,-0.2191,-0.2202,-0.22,-0.2205,-0.2196,-0.2184,-0.2188,-0.2192,-0.2148,-0.2147,-0.2147,0,0,-0.2155,-0.2168,-0.2185,-0.2204,-0.2228,-0.2237,-0.2246,-0.2262,-0.2264,-0.2276,-0.2256,-0.2253,-0.2246,-0.2235,-0.2228,-0.2254,-0.2228,-0.2253,-0.2278,-0.2269,-0.2272,-0.2275,-0.2266,-0.2267,-0.2257,-0.2257,-0.2257,0,-0.2153,-0.2179,-0.2193,-0.2219,-0.2235,-0.2244,-0.2269,-0.2279,-0.229,-0.2293,-0.2285,-0.2275,-0.226,-0.2264,-0.2272,-0.2266,-0.2256,-0.226,-0.2276,-0.2278,-0.228,-0.2269,-0.227,-0.226,-0.226,-0.226,-0.2259,0,-0.2178,-0.2201,-0.2215,-0.2249,-0.2269,-0.2292,-0.2314,-0.2328,-0.2331,-0.2336,-0.2342,-0.2324,-0.2316,-0.2316,-0.2302,-0.2309,-0.2298,-0.2284,-0.2263,-0.2287,-0.2275,-0.2275,-0.2265,-0.2264,-0.2263,-0.2262,0,0,-0.2161,-0.2221,-0.2223,-0.2242,-0.2287,-0.2302,-0.2336,-0.2363,-0.2374,-0.2383,-0.2393,-0.2386,-0.2374,-0.2364,-0.2348,-0.2341,-0.2348,-0.2321,-0.2319,-0.2316,-0.2331,-0.2308,-0.2305,-0.2342,-0.2342,-0.2342,-0.2322,0,-0.2171,-0.2218,-0.2249,-0.2287,-0.2312,-0.2341,-0.2369,-0.2393,-0.2406,-0.2418,-0.2409,-0.2408,-0.2394,-0.2388,-0.2383,-0.2352,-0.2348,-0.2355,-0.2304,-0.2302,-0.2281,-0.2304,-0.2128,-0.2094,-0.2322,-0.2321,-0.2321,0,-0.2179,-0.2209,-0.2251,-0.2303,-0.2316,-0.2341,-0.2378,-0.2405,-0.2432,-0.2443,-0.2451,-0.2442,-0.2437,-0.2416,-0.2388,-0.2395,-0.2367,-0.2344,-0.2343,-0.2296,-0.2278,-0.2103,-0.2084,-0.232,-0.232,-0.232,-0.232,0,-0.2142,-0.2206,-0.2235,-0.2254,-0.2317,-0.2336,-0.2365,-0.2404,-0.2426,-0.2451,-0.2466,-0.2463,-0.2455,-0.2429,-0.2394,-0.2389,-0.2358,-0.2344,-0.2298,-0.2296,-0.2122,-0.2105,-0.232,-0.232,-0.232,-0.232,-0.232,0,-0.2134,-0.2153,-0.2217,-0.223,-0.2257,-0.2311,-0.2341,-0.2371,-0.2417,-0.2437,-0.2466,-0.2472,-0.2457,-0.2443,-0.2406,-0.2355,-0.2369,-0.2302,-0.229,-0.214,-0.2126,-0.2296,-0.2293,-0.232,-0.232,-0.232,-0.232,0,-0.208,-0.213,-0.2158,-0.2221,-0.224,-0.2252,-0.2323,-0.234,-0.2398,-0.2425,-0.2434,-0.2476,-0.2458,-0.2443,-0.2397,-0.2366,-0.2319,-0.2296,-0.2128,-0.2097,-0.2259,-0.226,-0.2239,-0.2238,-0.2237,-0.2236,-0.2236,0,-0.2056,-0.2066,-0.2127,-0.2138,-0.2163,-0.2201,-0.2225,-0.2307,-0.233,-0.2416,-0.2415,-0.2438,-0.2438,-0.2392,-0.2319,-0.2259,-0.2294,-0.2067,-0.2027,-0.2261,-0.2251,-0.2253,-0.2255,-0.1817,-0.1813,-0.181,-0.1807,0,-0.1989,-0.2011,-0.203,-0.2058,-0.2083,-0.2119,-0.2162,-0.219,-0.228,-0.2325,-0.2373,-0.2392,-0.2365,-0.2231,-0.2168,-0.2098,-0.2066,-0.2002,-0.2267,-0.1883,-0.1866,-0.1857,-0.1871,-0.1778,-0.1781,-0.1783,-0.1785,-0.1786,-0.192,-0.1914,-0.194,-0.1955,-0.1987,-0.201,-0.2003,-0.207,-0.2114,-0.214,-0.2242,-0.2206,-0.2169,-0.1994,-0.1894,-0.18,-0.1934,-0.1821,-0.1829,-0.184,-0.1813,-0.1798,-0.1692,-0.1694,-0.1696,-0.1698,-0.1699,0,-0.1817,-0.1825,-0.1835,-0.1848,-0.1831,-0.1893,-0.1931,-0.1891,-0.1901,-0.1962,-0.1989,-0.1789,-0.1731,-0.1691,-0.1526,-0.1505,-0.146,-0.1417,-0.1351,-0.1381,-0.1407,-0.1356,-0.1114,-0.1112,-0.111,-0.1109,0,0,-0.1764,-0.1729,-0.1735,-0.1675,-0.1687,-0.1624,-0.1621,-0.1586,-0.1587,-0.1536,-0.1521,-0.1654,-0.1677,-0.1402,-0.133,-0.1205,-0.1275,-0.1139,-0.161,-0.1563,-0.1587,-0.1642,-0.1599,0,0,0,0,0]},{"header":{"parameterUnit":"m.s-1","parameterCategory":2,"la1":30.2991,"la2":30.254,"lo1":-89.0895,"lo2":-89.0444,"dy":0.0017,"dx":0.0017,"nx":28,"ny":28,"refTime":"2025-02-23T03:00:00:Z","depth":"2","parameterNumber":3,"parameterNumberName":"V-component_of_CURRENTS"},"data":[0,0,0,0,0,0,0,0,0,0,0,0,0,0,0,0,0,0,0,0,0,0,0,0,0,0,0,0,0,0,0,0,0,0,0,0,0,0,0,0,0,0,0,0,0,0,0,0,0,0,0,0,0,0,0,0,0,0,-0.0367,-0.0366,0,-0.0292,-0.0291,-0.029,-0.0243,-0.0243,-0.0242,-0.0242,-0.0149,-0.0146,-0.0144,0,0,0,0,0,0,0,0,0,0,0,0,0,-0.041,-0.041,-0.0367,-0.0366,-0.0365,-0.0292,-0.0291,-0.029,-0.0243,-0.0243,-0.0242,-0.0242,-0.0149,-0.0147,-0.0144,0,0,0,0,0,0,0,0,0,0,0,0,0,-0.0368,-0.041,-0.0367,-0.0334,-0.033,-0.0293,-0.0291,-0.029,-0.0243,-0.0243,-0.0242,-0.0242,-0.015,-0.0147,-0.0144,-0.0128,0,0,-0.0133,-0.0132,0,0,0,0,0,0,0,0,-0.0371,-0.0367,-0.0339,-0.0336,-0.0332,-0.0277,-0.0272,-0.0235,-0.0243,-0.0275,-0.0242,-0.0242,-0.0191,-0.0184,-0.017,-0.0124,-0.012,-0.0133,-0.0131,-0.0129,-0.0128,0,0,0,0,0,0,0,-0.0374,-0.0369,-0.0337,-0.0339,-0.0334,-0.0302,-0.0296,-0.0264,-0.0235,-0.0272,-0.0269,-0.0262,-0.0188,-0.0173,-0.0167,-0.0119,-0.0133,-0.013,-0.0128,-0.0126,-0.0043,-0.0042,0,0,0,0,0,0,-0.0388,-0.0372,-0.0339,-0.0334,-0.0352,-0.0302,-0.0295,-0.0294,-0.0235,-0.0226,-0.0262,-0.026,-0.0179,-0.0171,-0.0164,-0.0135,-0.0129,-0.0126,-0.0124,-0.0043,-0.0043,-0.0042,0,0,0,0,0,0,-0.0389,-0.0386,-0.0342,-0.0352,-0.0344,-0.0302,-0.0301,-0.0293,-0.0279,-0.0228,-0.0218,-0.0256,-0.0179,-0.0168,-0.0133,-0.0131,-0.0124,-0.0121,-0.0043,-0.0043,-0.0042,-0.0081,0,0,0,0,0,0,-0.0391,-0.0387,-0.0393,-0.0353,-0.0344,-0.0325,-0.0301,-0.0292,-0.0275,-0.0272,-0.022,-0.0211,-0.0178,-0.0138,-0.0129,-0.0126,-0.0119,-0.0043,-0.0043,-0.0043,-0.008,-0.0082,-0.0084,0,0,0,0,0,-0.0393,-0.0404,-0.0393,-0.0389,-0.0353,-0.0326,-0.0318,-0.0286,-0.0276,-0.0272,-0.0233,-0.0212,-0.013,-0.0135,-0.0125,-0.0121,-0.0043,-0.0043,-0.0043,-0.0079,-0.0082,-0.0084,0,0,0,0,0,0,-0.0426,-0.0399,-0.0387,-0.0389,-0.0362,-0.0318,-0.0314,-0.0292,-0.0258,-0.0256,-0.0208,-0.0196,-0.0165,-0.0138,-0.0145,-0.0096,-0.0084,-0.0082,-0.0116,-0.0118,-0.012,-0.0134,-0.0116,0,0,0,0,0,-0.0437,-0.0439,-0.0403,-0.0406,-0.0396,-0.0356,-0.0342,-0.0321,-0.0286,-0.0271,-0.0232,-0.0192,-0.0155,-0.0134,-0.01,-0.0072,-0.0042,-0.0063,-0.0065,-0.0067,-0.0072,-0.0023,-0.0021,-0.0041,-0.0041,-0.0041,0,0,-0.045,-0.0436,-0.0437,-0.0413,-0.0391,-0.038,-0.0347,-0.0332,-0.0317,-0.0266,-0.0238,-0.02,-0.015,-0.0118,-0.0101,-0.0094,-0.0046,-0.0067,-0.0069,-0.0072,-0.0023,-0.0021,-0.0019,-0.0041,-0.0041,-0.0041,0,0,-0.0481,-0.0467,-0.0479,-0.0459,-0.0432,-0.0404,-0.0403,-0.0361,-0.0337,-0.0306,-0.0264,-0.0223,-0.0171,-0.0129,-0.0102,-0.0095,-0.006,-0.0089,-0.0107,-0.0059,-0.0057,-0.0055,-0.0015,-0.001,-0.0087,-0.0087,-0.0087,0,-0.05,-0.0508,-0.0477,-0.048,-0.0467,-0.0419,-0.0423,-0.0389,-0.0339,-0.0316,-0.0305,-0.0215,-0.0175,-0.0123,-0.0121,-0.01,-0.0072,-0.0102,-0.0062,-0.006,-0.0057,-0.0016,-0.0009,-0.0089,-0.0089,-0.0089,-0.0089,0,-0.0536,-0.0539,-0.0544,-0.0531,-0.0511,-0.0507,-0.0458,-0.0434,-0.0401,-0.036,-0.0307,-0.0245,-0.0192,-0.0172,-0.0144,-0.0102,-0.0089,-0.0073,-0.0059,-0.0057,-0.0015,-0.0007,-0.0092,-0.0091,-0.0091,-0.009,0,0,-0.0584,-0.0574,-0.0575,-0.0578,-0.0539,-0.0528,-0.05,-0.0457,-0.0435,-0.0379,-0.0343,-0.0273,-0.0236,-0.0204,-0.0158,-0.0115,-0.0069,-0.0093,-0.0089,-0.0058,0.0029,0.007,0.0083,-0.0048,-0.0047,-0.0046,0.0051,0,-0.0622,-0.0649,-0.0622,-0.0633,-0.064,-0.0584,-0.0561,-0.0512,-0.0458,-0.0409,-0.0332,-0.0285,-0.0248,-0.0224,-0.0174,-0.0092,-0.005,-0.0097,0.0028,0.0031,0.0063,0.0093,0.0068,0.0155,0.0059,0.006,0.0061,0,-0.0665,-0.0676,-0.0705,-0.0688,-0.0684,-0.0677,-0.0627,-0.0598,-0.051,-0.0467,-0.0398,-0.0335,-0.0255,-0.0232,-0.0094,-0.0128,-0.006,0.0001,0.0007,0.0063,0.0087,0.014,0.0174,0.0075,0.0074,0.0073,0.0072,0,-0.0723,-0.0729,-0.0757,-0.0752,-0.0726,-0.072,-0.0696,-0.0622,-0.0593,-0.0503,-0.047,-0.0363,-0.0305,-0.0207,-0.0074,-0.0087,0.0077,0.0079,0.0179,0.0183,0.0196,0.0199,0.0165,0.0165,0.0164,0.0164,0.0164,0,-0.0776,-0.0794,-0.0791,-0.0806,-0.0827,-0.0781,-0.0775,-0.0728,-0.0658,-0.0621,-0.0511,-0.0453,-0.0297,-0.0179,-0.0077,0.0089,0.008,0.0184,0.0216,0.0183,0.0183,0.0138,0.0134,0.0168,0.0167,0.0166,0.0166,0,-0.0837,-0.0835,-0.0867,-0.0861,-0.0861,-0.0876,-0.0844,-0.0831,-0.0752,-0.07,-0.0676,-0.0512,-0.0347,-0.0183,-0.0,0.0094,0.0237,0.029,0.024,0.0265,0.0306,0.0298,0.0409,0.0412,0.0414,0.0415,0.0417,0,-0.087,-0.0897,-0.0922,-0.0948,-0.0951,-0.0961,-0.0963,-0.0895,-0.0868,-0.0733,-0.0709,-0.0531,-0.0389,-0.0089,0.011,0.0317,0.0302,0.0402,0.0377,0.0314,0.0334,0.0323,0.0313,0.0377,0.0378,0.0379,0.038,0,-0.0929,-0.0941,-0.097,-0.1032,-0.1056,-0.1069,-0.1059,-0.1053,-0.0956,-0.0888,-0.0757,-0.0631,-0.0312,-0.0059,0.0224,0.0333,0.0369,0.0425,0.0391,0.0319,0.0292,0.0309,0.0298,0.0387,0.0386,0.0386,0.0385,0.0385,-0.0967,-0.101,-0.1056,-0.111,-0.1144,-0.1165,-0.1175,-0.1133,-0.1086,-0.0954,-0.0815,-0.0596,-0.0324,0.0088,0.0287,0.0466,0.0459,0.049,0.0484,0.0478,0.0457,0.0436,0.0553,0.0553,0.0553,0.0553,0.0554,0,-0.1011,-0.1062,-0.1126,-0.1186,-0.1235,-0.1231,-0.1228,-0.1206,-0.1152,-0.0985,-0.0832,-0.0521,-0.0207,0.0065,0.0362,0.054,0.0511,0.0557,0.0483,0.0476,0.047,0.0444,0.0538,0.0539,0.0539,0.0539,0,0,-0.1037,-0.1114,-0.1152,-0.1249,-0.1291,-0.133,-0.1332,-0.1268,-0.1155,-0.0987,-0.0806,-0.055,-0.0202,0.0001,0.0239,0.0393,0.0375,0.04,0.0395,0.0272,0.0263,0.042,0.0373,0,0,0,0,0]}],[{"header":{"parameterUnit":"m.s-1","parameterCategory":2,"la1":30.2991,"la2":30.254,"lo1":-89.0895,"lo2":-89.0444,"dy":0.0017,"dx":0.0017,"nx":28,"ny":28,"refTime":"2025-02-23T03:00:00:Z","depth":"4","parameterNumber":2,"parameterNumberName":"U-component_of_CURRENTS"},"data":[0,0,0,0,0,0,0,0,0,0,0,0,0,0,0,0,0,0,0,0,0,0,0,0,0,0,0,0,0,0,0,0,0,0,0,0,0,0,0,0,0,0,0,0,0,0,0,0,0,0,0,0,0,0,0,0,0,0,-0.1427,-0.1428,0,-0.1468,-0.1468,-0.1468,-0.15,-0.1501,-0.1501,-0.1502,-0.1545,-0.1546,-0.1546,0,0,0,0,0,0,0,0,0,0,0,0,0,-0.1361,-0.1362,-0.1427,-0.1428,-0.1428,-0.1468,-0.1468,-0.1468,-0.15,-0.1501,-0.1501,-0.1502,-0.1545,-0.1546,-0.1547,0,0,0,0,0,0,0,0,0,0,0,0,0,-0.1393,-0.1362,-0.1427,-0.145,-0.1453,-0.1467,-0.1468,-0.1468,-0.15,-0.1501,-0.1501,-0.1502,-0.1545,-0.1546,-0.1547,-0.1539,0,0,-0.155,-0.155,0,0,0,0,0,0,0,0,-0.1391,-0.1395,-0.1446,-0.1449,-0.1452,-0.1481,-0.1461,-0.1493,-0.15,-0.148,-0.1502,-0.1502,-0.1525,-0.1527,-0.1531,-0.1541,-0.1543,-0.155,-0.1551,-0.1551,-0.1551,0,0,0,0,0,0,0,-0.1389,-0.1393,-0.1441,-0.1447,-0.145,-0.1453,-0.1458,-0.1467,-0.1497,-0.1482,-0.1485,-0.1492,-0.1526,-0.153,-0.1532,-0.1544,-0.155,-0.1551,-0.1552,-0.1552,-0.1616,-0.1617,0,0,0,0,0,0,-0.1387,-0.1391,-0.144,-0.1443,-0.1424,-0.1454,-0.146,-0.1469,-0.1497,-0.1502,-0.1491,-0.1493,-0.1528,-0.1531,-0.1534,-0.1595,-0.1551,-0.1552,-0.1553,-0.1615,-0.1616,-0.1617,0,0,0,0,0,0,-0.1386,-0.1391,-0.1438,-0.1419,-0.1426,-0.1455,-0.1465,-0.147,-0.1502,-0.1504,-0.1509,-0.1522,-0.1528,-0.1532,-0.1566,-0.1595,-0.1553,-0.1554,-0.1614,-0.1615,-0.1617,-0.1674,0,0,0,0,0,0,-0.1384,-0.1391,-0.1408,-0.1419,-0.1427,-0.1467,-0.1465,-0.147,-0.1504,-0.1508,-0.1531,-0.1534,-0.1529,-0.1565,-0.1567,-0.1595,-0.1554,-0.1612,-0.1614,-0.1616,-0.1671,-0.1678,-0.1683,0,0,0,0,0,-0.1381,-0.1399,-0.1409,-0.1415,-0.1446,-0.1468,-0.1472,-0.1493,-0.1505,-0.1524,-0.1541,-0.1535,-0.1579,-0.1567,-0.1569,-0.1598,-0.1611,-0.1614,-0.1616,-0.1668,-0.1676,-0.1683,0,0,0,0,0,0,-0.1381,-0.1405,-0.1415,-0.1441,-0.1463,-0.1474,-0.1497,-0.151,-0.1538,-0.1549,-0.155,-0.1554,-0.1592,-0.1587,-0.1573,-0.1622,-0.1594,-0.1597,-0.1632,-0.164,-0.1646,-0.1638,-0.1555,0,0,0,0,0,-0.1388,-0.1409,-0.143,-0.1453,-0.1467,-0.1487,-0.1503,-0.1519,-0.1539,-0.1554,-0.1571,-0.1586,-0.1598,-0.1614,-0.1622,-0.1652,-0.1636,-0.1671,-0.1678,-0.1683,-0.1679,-0.1675,-0.1681,-0.1625,-0.1625,-0.1625,0,0,-0.1395,-0.1411,-0.1424,-0.1455,-0.1474,-0.15,-0.1499,-0.1534,-0.1561,-0.1553,-0.1603,-0.1609,-0.161,-0.1641,-0.1658,-0.1647,-0.1694,-0.1686,-0.169,-0.1683,-0.1678,-0.1684,-0.1688,-0.1626,-0.1626,-0.1626,0,0,-0.1409,-0.1434,-0.1456,-0.1478,-0.1514,-0.1526,-0.1544,-0.1575,-0.1598,-0.1638,-0.1637,-0.166,-0.1691,-0.1691,-0.1694,-0.1737,-0.1722,-0.175,-0.1782,-0.178,-0.1784,-0.1788,-0.1786,-0.1789,-0.1758,-0.1758,-0.1758,0,-0.1419,-0.1446,-0.1466,-0.1493,-0.1518,-0.1543,-0.1574,-0.1597,-0.1638,-0.1658,-0.1665,-0.1705,-0.1708,-0.1733,-0.1749,-0.1751,-0.175,-0.1755,-0.1787,-0.179,-0.1793,-0.179,-0.1793,-0.1761,-0.1761,-0.176,-0.176,0,-0.144,-0.1476,-0.1492,-0.1534,-0.1563,-0.1595,-0.1629,-0.1666,-0.1698,-0.1717,-0.1761,-0.1764,-0.1785,-0.1794,-0.1788,-0.1814,-0.1807,-0.1792,-0.1767,-0.1802,-0.1797,-0.1799,-0.1765,-0.1764,-0.1763,-0.1763,0,0,-0.1423,-0.1494,-0.1502,-0.1532,-0.1591,-0.1612,-0.1667,-0.1712,-0.1746,-0.1786,-0.1823,-0.1844,-0.1849,-0.1852,-0.1849,-0.185,-0.1871,-0.1838,-0.1837,-0.1835,-0.1875,-0.1771,-0.1762,-0.1869,-0.1869,-0.1869,-0.1869,0,-0.1436,-0.1489,-0.1526,-0.1585,-0.1615,-0.1664,-0.1709,-0.1755,-0.1794,-0.1837,-0.185,-0.1881,-0.1871,-0.1887,-0.1889,-0.1874,-0.1876,-0.1873,-0.1843,-0.1842,-0.1743,-0.176,-0.187,-0.187,-0.187,-0.1871,-0.1871,0,-0.1436,-0.1474,-0.1534,-0.161,-0.163,-0.1673,-0.1747,-0.179,-0.1851,-0.1883,-0.1917,-0.1928,-0.1947,-0.1927,-0.1923,-0.1927,-0.1907,-0.1889,-0.1889,-0.1767,-0.1739,-0.1825,-0.1873,-0.1873,-0.1873,-0.1872,-0.1872,0,-0.1393,-0.1476,-0.1525,-0.1552,-0.1642,-0.1686,-0.1736,-0.1806,-0.1844,-0.191,-0.1941,-0.1967,-0.1983,-0.1967,-0.1944,-0.194,-0.1928,-0.1913,-0.1799,-0.1792,-0.1862,-0.1858,-0.1899,-0.1899,-0.1899,-0.1899,-0.1899,0,-0.1371,-0.1412,-0.1515,-0.1539,-0.16,-0.1673,-0.1739,-0.1792,-0.1867,-0.1899,-0.1959,-0.1972,-0.1994,-0.1992,-0.1962,-0.1884,-0.1943,-0.1799,-0.178,-0.1888,-0.1887,-0.1863,-0.1859,-0.1899,-0.1899,-0.1899,-0.1899,0,-0.1305,-0.1378,-0.1436,-0.1543,-0.1581,-0.1621,-0.1735,-0.1769,-0.1859,-0.1902,-0.1925,-0.1987,-0.1974,-0.1981,-0.1953,-0.189,-0.1834,-0.1792,-0.1919,-0.1908,-0.1698,-0.1698,-0.1657,-0.1653,-0.165,-0.1648,-0.1645,0,-0.1272,-0.1297,-0.1417,-0.1452,-0.1506,-0.1586,-0.1633,-0.1745,-0.1774,-0.1883,-0.1879,-0.1922,-0.1941,-0.1827,-0.1845,-0.1785,-0.1758,-0.1732,-0.1698,-0.1685,-0.1672,-0.1676,-0.1679,-0.164,-0.1639,-0.1639,-0.1638,0,-0.1197,-0.1253,-0.1298,-0.1371,-0.1433,-0.1493,-0.1568,-0.1585,-0.1696,-0.1797,-0.1788,-0.1781,-0.1768,-0.174,-0.1714,-0.1667,-0.1749,-0.1697,-0.1703,-0.1671,-0.1664,-0.1655,-0.1662,-0.1626,-0.1628,-0.1629,-0.163,0,-0.1135,-0.1146,-0.1214,-0.1263,-0.1337,-0.1363,-0.143,-0.1467,-0.1518,-0.1643,-0.1632,-0.168,-0.1748,-0.1678,-0.1648,-0.1602,-0.1566,-0.1514,-0.1528,-0.1541,-0.1499,-0.1473,-0.1354,0,0,0,0,0,-0.1061,-0.1059,-0.1098,-0.1145,-0.1212,-0.1253,-0.136,-0.1429,-0.1543,-0.1496,-0.1564,-0.1544,-0.1514,-0.1541,-0.1461,-0.1575,-0.1564,-0.1477,-0.151,-0.1564,-0.1577,-0.1538,0,0,0,0,0,0,-0.1011,-0.1039,-0.1052,-0.1028,-0.1035,-0.1094,-0.1158,-0.1247,-0.1235,-0.1359,-0.1345,-0.1443,-0.1426,-0.1519,-0.1421,-0.1427,-0.1417,-0.1516,-0.1512,-0.1557,-0.1569,-0.1579,-0.1543,0,0,0,0,0]},{"header":{"parameterUnit":"m.s-1","parameterCategory":2,"la1":30.2991,"la2":30.254,"lo1":-89.0895,"lo2":-89.0444,"dy":0.0017,"dx":0.0017,"nx":28,"ny":28,"refTime":"2025-02-23T03:00:00:Z","depth":"4","parameterNumber":3,"parameterNumberName":"V-component_of_CURRENTS"},"data":[0,0,0,0,0,0,0,0,0,0,0,0,0,0,0,0,0,0,0,0,0,0,0,0,0,0,0,0,0,0,0,0,0,0,0,0,0,0,0,0,0,0,0,0,0,0,0,0,0,0,0,0,0,0,0,0,0,0,-0.0237,-0.0237,0,-0.0192,-0.0192,-0.0191,-0.0163,-0.0163,-0.0163,-0.0163,-0.0095,-0.0093,-0.0092,0,0,0,0,0,0,0,0,0,0,0,0,0,-0.0254,-0.0254,-0.0237,-0.0237,-0.0236,-0.0192,-0.0192,-0.0191,-0.0163,-0.0163,-0.0163,-0.0163,-0.0096,-0.0093,-0.0091,0,0,0,0,0,0,0,0,0,0,0,0,0,-0.0232,-0.0254,-0.0237,-0.0218,-0.0215,-0.0193,-0.0192,-0.0191,-0.0163,-0.0163,-0.0163,-0.0163,-0.0096,-0.0094,-0.0091,-0.0078,0,0,-0.0083,-0.0082,0,0,0,0,0,0,0,0,-0.0233,-0.0231,-0.0221,-0.0219,-0.0216,-0.0184,-0.0173,-0.0152,-0.0163,-0.0182,-0.0163,-0.0163,-0.0123,-0.0118,-0.011,-0.0075,-0.0072,-0.0083,-0.0081,-0.008,-0.008,0,0,0,0,0,0,0,-0.0235,-0.0232,-0.0219,-0.022,-0.0218,-0.0196,-0.0193,-0.0169,-0.0153,-0.0181,-0.0179,-0.0175,-0.0122,-0.0112,-0.0108,-0.0071,-0.0083,-0.0081,-0.0079,-0.0078,-0.0017,-0.0016,0,0,0,0,0,0,-0.0244,-0.0234,-0.022,-0.0217,-0.0225,-0.0196,-0.0192,-0.0194,-0.0154,-0.0148,-0.0175,-0.0174,-0.0117,-0.0111,-0.0105,-0.0082,-0.008,-0.0078,-0.0076,-0.0017,-0.0017,-0.0016,0,0,0,0,0,0,-0.0245,-0.0243,-0.0222,-0.0225,-0.0221,-0.0196,-0.0198,-0.0193,-0.0187,-0.015,-0.0143,-0.0174,-0.0116,-0.0109,-0.0084,-0.0079,-0.0077,-0.0074,-0.0017,-0.0017,-0.0017,-0.0038,0,0,0,0,0,0,-0.0245,-0.0244,-0.0251,-0.0226,-0.0221,-0.0214,-0.0198,-0.0192,-0.0185,-0.0183,-0.0147,-0.014,-0.0116,-0.0088,-0.0081,-0.0075,-0.0072,-0.0017,-0.0017,-0.0017,-0.0037,-0.0039,-0.004,0,0,0,0,0,-0.0246,-0.0256,-0.0252,-0.025,-0.0231,-0.0214,-0.021,-0.0191,-0.0185,-0.0185,-0.0157,-0.0142,-0.0082,-0.0085,-0.0078,-0.0071,-0.0017,-0.0017,-0.0017,-0.0037,-0.0038,-0.004,0,0,0,0,0,0,-0.0267,-0.0254,-0.0248,-0.0254,-0.0238,-0.021,-0.021,-0.0196,-0.0175,-0.0175,-0.0139,-0.013,-0.0107,-0.0088,-0.0093,-0.0054,-0.0048,-0.0046,-0.0066,-0.0067,-0.0068,-0.0074,-0.007,0,0,0,0,0,-0.0275,-0.0281,-0.026,-0.0266,-0.0261,-0.0237,-0.0229,-0.0217,-0.0194,-0.0185,-0.0157,-0.0129,-0.01,-0.0083,-0.0059,-0.0036,-0.001,-0.0028,-0.0029,-0.003,-0.0031,0.002,0.0024,-0.0016,-0.0016,-0.0016,0,0,-0.0285,-0.0279,-0.0283,-0.0271,-0.0259,-0.0253,-0.0232,-0.0226,-0.0216,-0.018,-0.0161,-0.0133,-0.0096,-0.007,-0.0058,-0.0053,-0.0007,-0.003,-0.0031,-0.0031,0.0021,0.0024,0.0028,-0.0016,-0.0016,-0.0016,0,0,-0.0307,-0.0303,-0.0314,-0.0303,-0.029,-0.0272,-0.0273,-0.0248,-0.0232,-0.0211,-0.018,-0.0147,-0.0112,-0.0075,-0.0053,-0.0046,-0.0017,-0.0044,-0.005,-0.0001,0.0003,0.0006,0.0036,0.0043,-0.0042,-0.0042,-0.0042,0,-0.032,-0.0331,-0.0314,-0.0318,-0.0312,-0.0284,-0.0288,-0.0265,-0.0233,-0.0216,-0.0211,-0.0141,-0.011,-0.0062,-0.006,-0.0047,-0.0024,-0.0048,-0.0002,0.0002,0.0007,0.0036,0.0044,-0.0043,-0.0043,-0.0042,-0.0042,0,-0.0345,-0.0353,-0.0358,-0.0354,-0.0344,-0.0344,-0.0312,-0.0296,-0.0276,-0.0247,-0.0202,-0.0155,-0.0112,-0.0096,-0.0075,-0.003,-0.0025,-0.0011,0.0001,0.0009,0.004,0.0048,-0.0044,-0.0044,-0.0043,-0.0043,0,0,-0.0373,-0.0377,-0.0379,-0.0386,-0.0364,-0.036,-0.034,-0.0309,-0.0294,-0.0251,-0.0222,-0.0162,-0.0135,-0.0109,-0.0072,-0.0026,0.0022,-0.0012,-0.0009,0.0017,0.0116,0.0098,0.0105,0.0044,0.0045,0.0047,0.0122,0,-0.0398,-0.0424,-0.041,-0.0425,-0.0433,-0.0398,-0.0383,-0.0349,-0.0311,-0.0273,-0.0206,-0.017,-0.0139,-0.0121,-0.0068,-0.0,0.0043,-0.0001,0.0105,0.0108,0.0091,0.0114,0.0051,0.0129,0.0131,0.0132,0.0133,0,-0.0423,-0.0439,-0.0467,-0.0466,-0.0465,-0.0467,-0.0437,-0.0417,-0.0349,-0.0318,-0.0258,-0.0207,-0.0131,-0.0113,0.0016,-0.0016,0.0043,0.0097,0.0102,0.0098,0.0106,0.0122,0.0148,0.0147,0.0146,0.0145,0.0144,0,-0.0457,-0.0474,-0.0502,-0.0503,-0.0496,-0.0499,-0.0489,-0.0437,-0.0419,-0.0347,-0.0325,-0.0223,-0.0178,-0.008,0.0028,0.0022,0.0165,0.0174,0.0215,0.0214,0.0217,0.0212,0.0261,0.0261,0.0261,0.0261,0.0261,0,-0.0485,-0.0506,-0.0528,-0.0543,-0.0573,-0.0547,-0.0554,-0.0523,-0.0475,-0.0451,-0.0358,-0.0312,-0.0167,-0.0068,0.0026,0.0145,0.0167,0.0218,0.0238,0.0204,0.0197,0.0222,0.0217,0.0264,0.0263,0.0263,0.0262,0,-0.0513,-0.0528,-0.0565,-0.0583,-0.0594,-0.0616,-0.0617,-0.0612,-0.056,-0.0525,-0.0506,-0.0373,-0.0241,-0.0099,0.0067,0.0136,0.0254,0.0288,0.0231,0.0246,0.0267,0.026,0.0342,0.0342,0.0342,0.0342,0.0342,0,-0.0527,-0.0553,-0.0608,-0.0641,-0.0657,-0.0685,-0.0702,-0.0666,-0.0651,-0.0559,-0.054,-0.0407,-0.0309,-0.0084,0.0062,0.0245,0.0266,0.0318,0.0303,0.0268,0.0279,0.0271,0.0264,0.0342,0.0342,0.0342,0.0342,0,-0.0551,-0.058,-0.0614,-0.0692,-0.0733,-0.0765,-0.0779,-0.0774,-0.0716,-0.0676,-0.056,-0.0427,-0.0274,-0.009,0.0053,0.0183,0.0282,0.0319,0.032,0.0306,0.0269,0.0278,0.0271,0.0343,0.0343,0.0343,0.0342,0,-0.0568,-0.0607,-0.0665,-0.0726,-0.0788,-0.082,-0.0823,-0.0792,-0.0767,-0.0657,-0.062,-0.0439,-0.0326,-0.0122,0.0012,0.0138,0.0166,0.0194,0.0202,0.0203,0.014,0.0071,0.0106,0,0,0,0,0,-0.0576,-0.0624,-0.0691,-0.0756,-0.0819,-0.085,-0.086,-0.0845,-0.0793,-0.0724,-0.0668,-0.0523,-0.0294,-0.0181,-0.0059,0.0002,0.0176,0.0146,0.0209,0.0344,0.0344,0.0291,0,0,0,0,0,0,-0.0584,-0.0652,-0.069,-0.0768,-0.0817,-0.0872,-0.0882,-0.0848,-0.0793,-0.0725,-0.0599,-0.0514,-0.029,-0.0371,-0.0064,-0.0022,0.003,0.0262,0.0264,0.0345,0.0344,0.0344,0.029,0,0,0,0,0]}]]